Spokane, WA
on Monday, November 12, 2012

Monday
Previous Day Next Day
Daily Summary
 ActualAverageRecord
Temperature
Mean Temperature °F 37°F  
Max Temperature 35°F 43°F 67°F (1999)
Min Temperature 30°F 31°F 0°F (1955)
Degree Days
Heating Degree Days 23 28  
Month to date heating degree days 284 311  
Since 1 July heating degree days 890 1099  
Cooling Degree Days 0 0  
Month to date cooling degree days 0 0  
Year to date cooling degree days 535 450  
Moisture
Dew Point 32°F   
Average Humidity 95    
Maximum Humidity 100    
Minimum Humidity 89    
Precipitation
Precipitation 0.43 in 0.08 in 1.06 in (1911)
Month to date precipitation 1.15 0.84  
Year to date precipitation 16.65 12.80  
Snow
Snow 3.00 in 0.20 in 7.20 in (1911)
Month to date snowfall 5.9 1.4  
Since 1 July snowfall 5.9 1.5  
Since 1 September snowfall 5.9 1.5  
Snow Depth 2.00 in   
Wind
Wind Speed 8 mph   
Max Wind Speed 16 mph   
Max Gust Speed 20 mph   
Visibility 1 miles   
Events Rain , Snow   

Key: T is trace of precipitation, MM is missing value
Source: NWS Daily Summary
Time(PST)TemperatureDew PointHumidity Pressure Visibility Wind DirectionWind SpeedGust SpeedPrecipitationEvents Conditions
12:40 AM 30.2°F 28.4°F 93% 30.25 in 3.0 miles Calm Calm - 0.00 in Snow Light Snow
12:53 AM 30.0°F 28.0°F 92% 30.31 in 2.0 miles ENE 4.6 mph - 0.00 in Snow Light Snow
1:53 AM 30.9°F 28.9°F 92% 30.30 in 2.0 miles East 4.6 mph - 0.01 in Snow Light Snow
2:38 AM 30.2°F 28.4°F 93% 30.23 in 1.0 miles ESE 3.5 mph - 0.03 in Snow Light Snow
2:53 AM 30.9°F 30.0°F 96% 30.29 in 1.0 miles SE 6.9 mph - 0.04 in Snow Light Snow
3:43 AM 30.2°F 30.2°F 100% 30.22 in 0.8 miles SSE 5.8 mph - 0.05 in Snow Light Snow
3:53 AM 30.2°F 30.2°F 100% 30.21 in 1.0 miles SSE 6.9 mph - N/A Snow Light Snow
4:38 AM 30.2°F 30.2°F 100% 30.21 in 0.8 miles SSE 9.2 mph - 0.03 in Snow Light Snow
4:53 AM 30.9°F 30.0°F 96% 30.27 in 1.5 miles SSE 8.1 mph - 0.04 in Snow Light Snow
5:53 AM 30.9°F 30.0°F 96% 30.26 in 1.5 miles SE 9.2 mph 17.3 mph 0.02 in Snow Light Snow
6:41 AM 30.2°F 30.2°F 100% 30.19 in 0.5 miles SE 11.5 mph - 0.04 in Snow Light Snow
6:53 AM 30.9°F 30.0°F 96% 30.26 in 0.5 miles SSE 11.5 mph - 0.05 in Snow Light Snow
7:53 AM 32.0°F 30.0°F 92% 30.26 in 0.5 miles SE 9.2 mph - 0.03 in Snow Light Snow
8:53 AM 33.1°F 30.9°F 92% 30.25 in 0.5 miles SSE 12.7 mph - 0.01 in Snow Light Snow
9:53 AM 33.1°F 30.9°F 92% 30.26 in 0.5 miles SSE 13.8 mph - 0.01 in Snow Light Snow
10:53 AM 33.1°F 32.0°F 96% 30.25 in 1.0 miles SSE 13.8 mph - 0.01 in Snow Light Snow
11:36 AM 33.8°F 32.0°F 93% 30.19 in 1.0 miles SSE 10.4 mph - 0.01 in Snow Light Snow
11:53 AM 33.1°F 33.1°F 100% 30.25 in 1.0 miles SSE 11.5 mph - 0.02 in Snow Light Snow
12:53 PM 33.1°F 33.1°F 100% 30.24 in 1.0 miles SSE 9.2 mph - 0.03 in Snow Light Snow
1:53 PM 33.1°F 33.1°F 100% 30.23 in 1.0 miles SSE 10.4 mph - 0.03 in Snow Light Snow
2:53 PM 33.1°F 32.9°F 99% 30.23 in 2.5 miles SSE 12.7 mph - 0.02 in Snow Light Snow
3:53 PM 33.1°F 32.9°F 99% 30.24 in 2.0 miles SSE 6.9 mph - 0.01 in Snow Light Snow
4:08 PM 33.8°F 33.8°F 100% 30.17 in 2.0 miles SSE 8.1 mph - 0.02 in Snow Light Snow
4:53 PM 33.1°F 33.1°F 100% 30.23 in 2.0 miles SE 8.1 mph - 0.02 in Rain Light Rain
5:53 PM 34.0°F 33.8°F 99% 30.23 in 2.0 miles SSE 10.4 mph - 0.00 in   Overcast
6:53 PM 34.0°F 33.8°F 99% 30.24 in 2.0 miles SSE 9.2 mph - 0.01 in   Light Drizzle
7:31 PM 33.8°F 33.8°F 100% 30.19 in 0.8 miles SSE 5.8 mph - 0.00 in   Light Drizzle
7:53 PM 34.0°F 34.0°F 100% 30.25 in 0.8 miles SE 8.1 mph - 0.00 in   Light Drizzle
8:10 PM 33.8°F 33.8°F 100% 30.19 in 0.8 miles SE 6.9 mph - 0.00 in   Light Drizzle
8:53 PM 34.0°F 34.0°F 100% 30.26 in 0.8 miles SE 3.5 mph - 0.00 in   Light Drizzle
9:53 PM 34.0°F 34.0°F 100% 30.27 in 0.8 miles Calm Calm - 0.00 in   Light Drizzle
10:01 PM 33.8°F 33.8°F 100% 30.21 in 0.8 miles Calm Calm - 0.00 in   Light Drizzle
10:53 PM 34.0°F 33.8°F 99% 30.28 in 0.8 miles Calm Calm - 0.01 in   Overcast
11:53 PM 34.0°F 34.0°F 100% 30.28 in 0.8 miles SSE 3.5 mph - N/A   Overcast
Moon Phase
Nov. 12 Nov. 13 Nov. 20 Nov. 28 Dec. 06
Sunrise:06:51 AM (PST) Moon Rise:05:19 AM (PST)11/12
Sunset:04:16 PM (PST) Moon Set:03:26 PM (PST)11/12

Copyright © 2014 The Weather Underground, Inc.